This is the latest recevied weather packets stored in our database for station/object K8GLX. If no packets are shown the sender has not sent any weather packets the latest 10 day(s).
| Time | Temp. | Humidity | Pressure | Rain* | Wind** | Luminosity | Snow |
|---|---|---|---|---|---|---|---|
| 1777238228 | 13.33° C | 71% | 1019.8 hPa | 0 mm | - | 373 W/m² | - |
| 1777237934 | 13.33° C | 72% | 1019.6 hPa | 0 mm | - | 389 W/m² | - |
| 1777237743 | 13.33° C | 72% | 1019.5 hPa | 0 mm | - | 407 W/m² | - |
| 1777237461 | 13.33° C | 73% | 1019.6 hPa | 0 mm | - | 423 W/m² | - |
| 1777237028 | 13.33° C | 72% | 1019.7 hPa | 0 mm | - | 442 W/m² | - |
| 1777236734 | 13.33° C | 73% | 1019.6 hPa | 0 mm | - | 460 W/m² | - |
| 1777236428 | 12.78° C | 73% | 1019.6 hPa | 0 mm | - | 477 W/m² | - |
| 1777236261 | 12.78° C | 74% | 1019.6 hPa | 0 mm | - | 493 W/m² | - |
| 1777235828 | 13.33° C | 73% | 1019.6 hPa | 0 mm | - | 510 W/m² | - |
| 1777235533 | 12.78° C | 74% | 1019.8 hPa | 0 mm | - | 523 W/m² | - |
| 1777235228 | 12.78° C | 74% | 1019.7 hPa | 0 mm | - | 539 W/m² | - |
| 1777234933 | 13.33° C | 74% | 1019.7 hPa | 0 mm | - | 557 W/m² | - |
| 1777234627 | 12.78° C | 76% | 1019.8 hPa | 0 mm | - | 570 W/m² | - |
| 1777234461 | 12.78° C | 75% | 1019.8 hPa | 0 mm | - | 565 W/m² | - |
| 1777234028 | 12.78° C | 75% | 1020.1 hPa | 0 mm | - | 504 W/m² | - |
| 1777233734 | 12.22° C | 75% | 1019.9 hPa | 0 mm | - | 577 W/m² | - |
| 1777233428 | 12.78° C | 75% | 1019.8 hPa | 0 mm | - | 535 W/m² | - |
| 1777233134 | 12.78° C | 75% | 1019.6 hPa | 0 mm | - | 533 W/m² | - |
| 1777232828 | 12.78° C | 75% | 1020.1 hPa | 0 mm | - | 557 W/m² | - |
| 1777232661 | 12.78° C | 75% | 1020.1 hPa | 0 mm | - | 647 W/m² | - |
| 1777232228 | 12.78° C | 74% | 1020 hPa | 0 mm | - | 565 W/m² | - |
| 1777231934 | 12.78° C | 74% | 1020.1 hPa | 0 mm | - | 648 W/m² | - |
| 1777231628 | 12.78° C | 74% | 1020.3 hPa | 0 mm | - | 676 W/m² | - |
| 1777231334 | 12.22° C | 75% | 1020.3 hPa | 0 mm | - | 688 W/m² | - |
| 1777231028 | 12.22° C | 75% | 1020.3 hPa | 0 mm | - | 693 W/m² | - |
* Rain latest hour (hover to see other rain measurements)
** Current wind speed in m/s (hover to see current wind gust speed)